{"data":{"norad_id":67842,"epoch":"2026-05-25T04:20:36.566592Z","epoch_age_seconds":59698,"freshness":"FRESH","line1":"1 67842U 26033X   26145.18097878  .00011724  00000+0  43476-3 0  9998","line2":"2 67842  43.0020 194.9580 0001019 279.3199  80.7537 15.27588777 16379","mean_motion":15.27588777,"eccentricity":0.0001019,"inclination_deg":43.002,"raan_deg":194.958,"arg_perigee_deg":279.3199,"mean_anomaly_deg":80.7537,"bstar":0.00043476,"rev_number":1637,"period_min":94.266207089318,"perigee_km":482.32366248487,"apogee_km":483.7219668551,"semimajor_km":6861.15981467,"source":"CELESTRAK","updated_at":"2026-05-25T13:38:21.701935Z"}}